GFSFLT2_850_dewp_120.txt.gz
Dewpoint
-15 -19 -20 -21 -25 -25 -23 -16 -1 -1 3 2 4 6 8 8 9 10 10 10 9 9 8 8 9 9 10
-15 -16 -16 -16 -18 -20 -20 -21 -16 -10 -1 2 2 3 6 8 8 9 9 9 10 9 8 8 8 9 9
-9 -14 -14 -14 -15 -16 -18 -20 -24 -21 -12 -3 2 2 3 5 7 7 9 9 9 9 9 9 9 8 8
-8 -9 -12 -13 -13 -14 -17 -16 -19 -21 -20 -11 -5 -1 1 2 3 5 7 8 9 9 8 8 9 8 8
-7 -7 -8 -10 -10 -10 -11 -13 -18 -16 -18 -22 -25 -24 -12 -3 0 3 4 5 8 8 8 8 8 9 9
-8 -8 -10 -10 -10 -9 -8 -7 -7 -12 -12 -18 -19 -22 -24 -23 -16 -0 2 3 4 5 7 8 8 8 8
-10 -10 -10 -9 -8 -7 -7 -7 -8 -9 -9 -11 -18 -18 -20 -23 -17 -16 -5 0 2 4 5 6 7 7 8
-10 -10 -8 -8 -8 -8 -8 -8 -8 -10 -10 -10 -12 -7 -11 -12 -2 -2 -6 -7 -2 2 3 5 6 7 7
-10 -10 -10 -9 -10 -12 -12 -9 -9 -10 -11 -7 -8 -11 -15 -21 -12 -1 -1 -1 -3 -2 2 3 4 6 7
-9 -10 -11 -12 -13 -13 -10 -9 -8 -8 -10 -9 -11 -10 -10 -17 -13 -10 -6 -3 -2 -0 1 3 4 5 6
-10 -11 -12 -14 -14 -13 -13 -11 -10 -8 -10 -8 -10 -11 -10 -9 -15 -21 -21 -23 -13 -5 -0 1 3 4 5
-13 -13 -13 -13 -14 -14 -14 -13 -11 -9 -8 -9 -10 -12 -11 -11 -12 -17 -19 -22 -22 -22 -4 1 3 3 4
-14 -13 -12 -12 -13 -13 -14 -13 -12 -10 -9 -10 -11 -12 -11 -11 -11 -14 -14 -19 -19 -22 -16 -1 2 3 3
-14 -13 -12 -12 -12 -13 -13 -12 -11 -12 -12 -11 -11 -11 -11 -11 -11 -12 -11 -10 -14 -15 -8 -2 0 1 1
-12 -13 -13 -11 -11 -13 -13 -11 -10 -10 -11 -12 -12 -11 -10 -10 -11 -13 -10 -9 -11 -15 -14 -9 -1 -0 -0
-11 -11 -12 -11 -12 -13 -12 -10 -10 -11 -11 -11 -11 -11 -11 -11 -10 -10 -9 -8 -8 -8 -8 -10 -8 -2 -1
-11 -11 -11 -11 -12 -11 -11 -11 -11 -12 -11 -11 -11 -10 -11 -10 -12 -11 -8 -7 -7 -7 -7 -7 -9 -10 -3

GFSFLT2_850_dewp_123.txt.gz
Dewpoint
-19 -19 -16 -15 -18 -18 -20 -22 -23 -25 -26 -24 -12 0 2 2 3 4 7 9 9 9 10 10 10 11 9
-10 -14 -15 -14 -15 -18 -19 -20 -21 -22 -22 -24 -22 -18 -5 2 2 2 3 5 8 9 9 9 10 10 9
-7 -12 -13 -15 -15 -16 -18 -19 -19 -20 -21 -20 -21 -22 -23 -17 0 3 2 3 5 7 9 9 9 10 9
-7 -7 -7 -12 -13 -11 -13 -11 -16 -16 -16 -17 -21 -23 -23 -23 -24 -2 2 2 3 4 8 9 9 10 10
-7 -7 -7 -8 -9 -9 -8 -10 -8 -8 -13 -17 -19 -20 -24 -25 -23 -25 -12 -1 2 3 4 6 8 9 9
-7 -7 -8 -8 -8 -7 -8 -7 -7 -8 -8 -16 -15 -17 -19 -21 -16 -10 -12 -9 -0 2 2 3 4 9 9
-8 -9 -9 -8 -8 -8 -8 -8 -8 -13 -10 -9 -16 -14 -16 -19 -19 -3 -2 -4 -12 -3 1 2 3 4 7
-10 -10 -9 -8 -8 -8 -9 -11 -12 -14 -10 -8 -13 -8 -15 -17 -18 -18 -3 -2 -2 -5 -7 1 2 3 5
-9 -8 -8 -8 -8 -10 -10 -11 -11 -13 -15 -9 -8 -9 -12 -16 -17 -16 -13 -15 -10 -6 -3 -3 -0 1 3
-8 -9 -10 -10 -11 -13 -13 -11 -10 -10 -11 -9 -8 -8 -8 -11 -15 -17 -18 -19 -21 -19 -10 -5 -2 -0 2
-11 -13 -14 -15 -14 -13 -13 -13 -12 -12 -15 -9 -9 -8 -9 -9 -12 -15 -16 -18 -19 -22 -22 -18 -3 0 2
-15 -15 -13 -14 -14 -14 -13 -13 -13 -13 -13 -11 -9 -9 -9 -10 -11 -15 -16 -17 -17 -19 -20 -22 -7 0 2
-13 -13 -14 -14 -14 -14 -14 -14 -14 -13 -12 -11 -10 -9 -9 -10 -11 -14 -14 -17 -17 -12 -11 -14 -9 0 2
-12 -12 -12 -12 -11 -11 -11 -13 -13 -14 -13 -13 -11 -10 -10 -11 -11 -13 -11 -10 -17 -17 -15 -16 -15 -2 -0
-11 -11 -11 -11 -11 -11 -12 -12 -12 -11 -12 -13 -12 -10 -10 -12 -11 -12 -11 -10 -10 -9 -8 -9 -15 -10 -1
-11 -11 -11 -11 -11 -11 -12 -12 -12 -11 -12 -12 -10 -11 -12 -13 -13 -13 -11 -10 -8 -8 -7 -7 -9 -14 -4
-10 -10 -11 -11 -11 -11 -12 -12 -12 -12 -12 -12 -11 -10 -10 -10 -11 -12 -10 -9 -10 -10 -9 -7 -7 -8 -12

GFSFLT2_850_dewp_126.txt.gz
Dewpoint
-7 -6 -11 -11 -13 -15 -19 -18 -20 -24 -24 -25 -25 -25 -26 -28 -27 -14 0 2 2 3 7 9 9 9 9
-6 -6 -6 -6 -14 -19 -19 -17 -17 -21 -25 -24 -23 -22 -24 -25 -25 -26 -25 -1 2 2 3 5 8 8 8
-6 -6 -6 -6 -6 -13 -13 -13 -11 -16 -19 -22 -24 -24 -24 -24 -26 -25 -26 -26 -3 2 3 3 4 7 8
-6 -6 -7 -7 -7 -7 -7 -7 -9 -16 -10 -10 -20 -25 -26 -24 -24 -22 -20 -17 -15 -11 2 2 2 4 8
-6 -7 -7 -7 -7 -7 -7 -7 -7 -7 -7 -7 -11 -15 -21 -24 -23 -20 -18 -4 -6 -13 -5 2 2 2 4
-7 -7 -8 -8 -8 -7 -7 -7 -7 -8 -8 -8 -8 -9 -13 -17 -21 -21 -20 -15 -3 -2 -3 -7 1 2 2
-7 -7 -7 -7 -7 -7 -7 -7 -8 -8 -8 -9 -9 -8 -8 -8 -21 -20 -18 -18 -16 -5 -3 -4 -5 1 2
-7 -7 -8 -7 -8 -8 -8 -8 -8 -9 -9 -9 -9 -8 -8 -9 -15 -18 -18 -17 -17 -18 -18 -12 -6 -3 1
-7 -8 -8 -8 -8 -8 -9 -9 -9 -9 -9 -9 -8 -9 -10 -11 -8 -11 -18 -18 -18 -18 -19 -21 -15 -6 -2
-8 -8 -8 -8 -9 -9 -9 -9 -9 -9 -10 -9 -10 -9 -9 -9 -8 -9 -12 -17 -18 -18 -18 -20 -22 -15 -4
-9 -9 -10 -10 -9 -9 -9 -9 -10 -10 -10 -10 -11 -9 -9 -9 -10 -10 -11 -15 -17 -18 -18 -18 -20 -17 -8
-10 -10 -10 -9 -10 -10 -10 -11 -12 -11 -13 -12 -10 -10 -9 -9 -10 -10 -12 -15 -14 -16 -16 -12 -15 -16 -8
-10 -9 -10 -10 -10 -11 -11 -10 -11 -11 -13 -14 -10 -10 -10 -10 -10 -11 -9 -13 -14 -10 -11 -13 -13 -17 -16
-10 -10 -10 -10 -11 -11 -11 -11 -11 -11 -11 -13 -11 -10 -10 -10 -10 -10 -11 -10 -11 -9 -8 -8 -7 -9 -14
-10 -10 -10 -10 -11 -11 -11 -11 -11 -11 -11 -11 -10 -10 -10 -10 -10 -11 -10 -10 -10 -10 -9 -8 -8 -9 -11
-10 -10 -10 -10 -11 -11 -11 -11 -11 -11 -11 -11 -11 -11 -11 -11 -10 -10 -10 -11 -11 -11 -13 -12 -10 -9 -9
-10 -10 -10 -10 -11 -11 -11 -12 -12 -12 -12 -12 -12 -11 -11 -11 -12 -10 -10 -11 -12 -11 -10 -11 -9 -10 -9

GFSFLT2_850_dewp_129.txt.gz
Dewpoint
-11 -8 -10 -8 -9 -6 -9 -14 -17 -21 -25 -27 -28 -28 -27 -25 -26 -27 -27 -28 -29 -30 -11 2 2 3 6
-11 -8 -7 -8 -8 -9 -10 -10 -8 -7 -6 -17 -19 -20 -23 -26 -27 -27 -26 -26 -27 -25 -27 -13 2 2 3
-7 -7 -6 -7 -8 -9 -10 -9 -11 -7 -17 -15 -5 -11 -21 -23 -24 -25 -25 -24 -25 -25 -24 -23 -12 1 2
-6 -8 -7 -7 -7 -7 -7 -9 -8 -13 -17 -7 -10 -13 -17 -17 -21 -20 -18 -23 -24 -21 -20 -22 -17 -14 1
-7 -6 -7 -7 -7 -7 -8 -7 -10 -11 -10 -7 -11 -17 -18 -18 -17 -10 -15 -21 -21 -15 -21 -23 -19 -10 -11
-7 -7 -7 -7 -7 -7 -7 -9 -8 -9 -9 -10 -13 -14 -14 -14 -11 -8 -14 -16 -15 -19 -19 -20 -21 -20 -8
-7 -8 -7 -7 -8 -8 -8 -8 -8 -9 -9 -9 -10 -11 -13 -13 -10 -10 -13 -9 -10 -18 -19 -20 -19 -20 -23
-8 -8 -8 -7 -8 -8 -8 -8 -8 -9 -9 -9 -9 -11 -9 -10 -17 -18 -8 -7 -9 -16 -19 -19 -20 -20 -21
-7 -8 -8 -7 -7 -8 -8 -8 -9 -9 -10 -10 -10 -9 -11 -15 -16 -11 -8 -9 -8 -9 -10 -18 -19 -19 -20
-9 -9 -9 -9 -9 -9 -10 -9 -9 -9 -9 -9 -9 -10 -9 -10 -12 -13 -13 -11 -8 -9 -12 -17 -17 -15 -14
-9 -9 -9 -10 -11 -10 -10 -10 -9 -10 -11 -9 -10 -10 -10 -10 -11 -11 -13 -11 -11 -13 -15 -16 -12 -7 -10
-9 -10 -10 -10 -10 -10 -10 -10 -11 -11 -12 -10 -11 -11 -11 -11 -10 -11 -12 -11 -11 -11 -14 -12 -12 -10 -8
-10 -10 -10 -10 -10 -11 -11 -11 -11 -11 -11 -11 -11 -11 -11 -10 -10 -11 -10 -11 -11 -11 -11 -11 -12 -10 -10
-9 -10 -10 -10 -10 -10 -10 -11 -11 -11 -11 -12 -12 -11 -11 -10 -10 -11 -11 -10 -12 -11 -11 -12 -12 -10 -11
-9 -10 -10 -10 -10 -10 -11 -11 -11 -11 -12 -12 -11 -11 -11 -11 -11 -11 -11 -11 -11 -11 -11 -12 -14 -14 -14
-10 -10 -10 -10 -11 -11 -11 -11 -11 -11 -11 -12 -12 -12 -12 -13 -11 -10 -10 -11 -10 -10 -11 -10 -11 -13 -12
-10 -10 -10 -10 -11 -11 -11 -11 -11 -11 -12 -11 -12 -12 -11 -11 -13 -12 -10 -12 -12 -13 -12 -11 -10 -12 -11

GFSFLT2_850_dewp_135.txt.gz
Dewpoint
-17 -15 -13 -13 -13 -12 -11 -10 -10 -12 -13 -14 -15 -18 -13 -4 -5 -16 -22 -22 -24 -20 -26 -28 -27 -14 -18
-15 -14 -12 -13 -12 -11 -10 -9 -8 -9 -11 -12 -15 -19 -13 -9 -17 -20 -20 -22 -24 -22 -24 -25 -23 -8 -17
-15 -15 -14 -14 -13 -11 -10 -9 -9 -10 -11 -12 -13 -12 -12 -16 -18 -20 -21 -23 -22 -10 -6 -13 -20 -18 -19
-14 -15 -14 -14 -11 -9 -9 -10 -10 -11 -12 -13 -13 -12 -13 -14 -16 -18 -19 -20 -20 -14 -8 -16 -13 -7 -12
-14 -12 -12 -9 -7 -8 -9 -9 -10 -11 -12 -13 -13 -15 -15 -16 -16 -17 -18 -18 -8 -6 -13 -18 -9 -6 -6
-9 -9 -8 -7 -7 -8 -8 -8 -9 -10 -9 -12 -13 -14 -15 -15 -15 -16 -17 -15 -13 -18 -18 -6 -6 -6 -6
-7 -8 -8 -8 -8 -8 -8 -8 -8 -9 -9 -10 -13 -14 -14 -14 -15 -15 -16 -16 -17 -12 -7 -7 -7 -7 -7
-8 -9 -8 -8 -7 -7 -7 -7 -7 -9 -9 -11 -13 -13 -13 -14 -15 -16 -16 -16 -14 -11 -10 -9 -10 -9 -7
-8 -7 -7 -7 -7 -7 -8 -9 -8 -9 -12 -10 -11 -11 -12 -14 -15 -15 -15 -15 -16 -16 -16 -15 -11 -9 -9
-8 -8 -7 -8 -8 -9 -10 -9 -9 -10 -10 -10 -10 -10 -10 -12 -12 -13 -14 -16 -16 -16 -16 -13 -16 -12 -13
-7 -7 -8 -8 -9 -11 -11 -10 -10 -10 -11 -9 -10 -11 -11 -11 -12 -13 -13 -15 -15 -15 -16 -15 -15 -15 -11
-7 -8 -8 -8 -11 -11 -10 -10 -10 -10 -11 -11 -11 -11 -11 -11 -11 -12 -13 -14 -14 -15 -15 -15 -15 -15 -13
-8 -8 -10 -10 -10 -10 -10 -11 -11 -11 -11 -11 -11 -11 -12 -11 -12 -12 -13 -13 -13 -13 -14 -14 -15 -15 -15
-9 -10 -10 -10 -9 -9 -10 -11 -11 -12 -12 -12 -12 -12 -11 -12 -12 -12 -12 -11 -13 -14 -14 -14 -14 -15 -14
-9 -9 -10 -10 -10 -10 -10 -10 -11 -11 -11 -12 -12 -11 -11 -12 -11 -12 -13 -13 -13 -13 -13 -13 -14 -14 -12
-9 -10 -10 -10 -11 -10 -10 -11 -10 -11 -11 -11 -11 -11 -11 -12 -12 -12 -12 -13 -13 -13 -12 -12 -13 -12 -13
-11 -10 -11 -11 -11 -11 -11 -11 -10 -10 -11 -10 -11 -10 -10 -11 -12 -11 -11 -12 -12 -12 -12 -12 -12 -14 -13

GFSFLT2_850_dewp_138.txt.gz
Dewpoint
-18 -16 -15 -14 -13 -14 -14 -11 -11 -10 -11 -10 -12 -13 -17 -5 -5 -8 -17 -12 -17 -25 -22 -25 -26 -28 -13
-18 -17 -17 -15 -15 -15 -14 -10 -10 -9 -10 -11 -12 -14 -12 -5 -6 -11 -17 -20 -22 -24 -24 -24 -25 -27 -23
-16 -15 -16 -16 -15 -14 -12 -11 -10 -10 -10 -11 -13 -13 -13 -13 -14 -15 -17 -18 -18 -16 -16 -12 -10 -22 -25
-15 -16 -15 -14 -12 -10 -11 -10 -11 -11 -12 -12 -12 -11 -12 -14 -15 -16 -17 -18 -18 -18 -6 -5 -9 -14 -7
-15 -14 -14 -12 -10 -9 -9 -9 -10 -11 -11 -11 -12 -14 -14 -15 -15 -15 -16 -16 -17 -10 -6 -11 -18 -13 -7
-13 -12 -12 -12 -10 -9 -8 -9 -8 -9 -9 -11 -12 -14 -14 -15 -15 -15 -16 -16 -16 -14 -16 -17 -6 -6 -6
-9 -12 -10 -9 -9 -9 -8 -7 -7 -7 -9 -10 -12 -14 -14 -14 -15 -17 -17 -17 -18 -18 -17 -10 -10 -13 -14
-10 -10 -9 -9 -8 -7 -6 -7 -7 -8 -10 -9 -12 -13 -13 -15 -17 -18 -18 -17 -17 -17 -17 -17 -18 -18 -18
-10 -8 -7 -6 -7 -7 -6 -7 -8 -11 -10 -10 -12 -12 -13 -16 -18 -18 -17 -17 -17 -17 -17 -17 -17 -16 -10
-8 -8 -8 -8 -7 -7 -7 -7 -10 -9 -11 -11 -11 -10 -10 -13 -15 -14 -15 -17 -17 -17 -17 -17 -17 -16 -17
-7 -7 -7 -7 -8 -7 -8 -8 -10 -10 -11 -10 -9 -10 -10 -10 -12 -14 -15 -16 -16 -16 -16 -16 -16 -16 -16
-7 -6 -7 -8 -8 -8 -10 -10 -10 -10 -10 -10 -10 -11 -10 -10 -11 -13 -13 -13 -14 -15 -15 -15 -16 -16 -15
-7 -8 -8 -9 -9 -10 -10 -10 -10 -10 -11 -11 -11 -11 -11 -11 -12 -12 -12 -13 -13 -14 -14 -14 -15 -15 -16
-8 -9 -9 -9 -10 -10 -10 -10 -10 -11 -12 -11 -11 -11 -11 -11 -11 -12 -12 -11 -13 -13 -13 -14 -14 -15 -15
-9 -9 -9 -9 -9 -9 -10 -10 -11 -11 -11 -11 -11 -11 -11 -10 -11 -12 -12 -12 -13 -13 -13 -13 -14 -14 -14
-9 -9 -9 -9 -10 -10 -10 -11 -11 -10 -11 -11 -11 -11 -11 -12 -12 -12 -12 -12 -12 -12 -12 -12 -12 -13 -13
-9 -10 -10 -10 -11 -11 -11 -11 -11 -11 -11 -11 -11 -11 -10 -11 -11 -11 -11 -11 -12 -11 -11 -11 -11 -12 -12

GFSFLT2_850_dewp_141.txt.gz
Dewpoint
-21 -20 -19 -18 -18 -18 -17 -17 -16 -13 -11 -10 -11 -12 -13 -15 -7 -5 -5 -13 -10 -18 -19 -9 -4 -5 -13
-21 -21 -19 -18 -18 -18 -17 -16 -15 -13 -11 -11 -11 -12 -12 -6 -7 -13 -17 -17 -19 -20 -21 -20 -9 -4 -4
-19 -20 -19 -17 -17 -16 -15 -14 -12 -11 -11 -11 -12 -12 -12 -7 -11 -13 -15 -16 -18 -19 -19 -21 -20 -12 -15
-16 -17 -17 -16 -14 -13 -14 -12 -12 -11 -11 -11 -11 -11 -12 -12 -14 -15 -15 -16 -17 -17 -18 -16 -11 -18 -20
-13 -14 -15 -14 -12 -11 -11 -12 -13 -11 -11 -10 -10 -11 -12 -13 -14 -15 -15 -16 -16 -16 -14 -9 -13 -18 -13
-12 -12 -14 -13 -12 -10 -9 -10 -9 -9 -8 -8 -9 -12 -13 -14 -14 -14 -15 -16 -16 -17 -17 -17 -17 -13 -7
-9 -12 -10 -12 -10 -9 -9 -9 -8 -7 -7 -8 -9 -12 -13 -14 -14 -15 -16 -17 -18 -17 -16 -13 -14 -13 -13
-12 -14 -12 -11 -9 -8 -8 -7 -7 -8 -7 -8 -11 -12 -13 -13 -14 -16 -19 -19 -18 -18 -18 -18 -19 -19 -19
-15 -13 -11 -9 -8 -6 -7 -6 -7 -7 -7 -8 -12 -12 -12 -13 -15 -18 -19 -18 -18 -17 -18 -19 -19 -19 -19
-14 -10 -8 -7 -7 -7 -7 -7 -7 -7 -9 -11 -11 -11 -10 -12 -15 -15 -15 -16 -17 -17 -17 -17 -17 -17 -18
-11 -11 -9 -7 -7 -7 -7 -7 -7 -8 -8 -9 -10 -10 -9 -10 -12 -13 -14 -17 -16 -18 -17 -17 -16 -16 -16
-8 -7 -7 -7 -7 -8 -8 -8 -8 -10 -10 -9 -9 -9 -10 -10 -10 -12 -13 -14 -16 -17 -17 -17 -16 -16 -15
-7 -7 -6 -7 -8 -8 -9 -9 -10 -10 -10 -10 -10 -10 -10 -10 -11 -12 -12 -15 -15 -15 -15 -15 -15 -15 -16
-7 -7 -7 -8 -9 -9 -8 -9 -9 -10 -11 -10 -10 -11 -11 -11 -11 -11 -12 -11 -12 -13 -13 -12 -13 -14 -14
-7 -7 -8 -9 -9 -9 -8 -9 -10 -10 -11 -11 -11 -11 -11 -10 -10 -11 -11 -12 -12 -12 -11 -12 -12 -13 -14
-7 -7 -9 -9 -9 -9 -9 -10 -11 -11 -11 -11 -11 -11 -11 -11 -11 -12 -12 -11 -11 -11 -12 -12 -12 -12 -12
-7 -8 -9 -9 -9 -9 -10 -11 -11 -11 -11 -11 -11 -11 -11 -11 -12 -11 -10 -11 -11 -12 -12 -12 -12 -12 -12

GFSFLT2_850_dewp_144.txt.gz
Dewpoint
-19 -19 -19 -19 -19 -19 -19 -19 -19 -18 -17 -16 -14 -13 -12 -13 -13 -4 -4 -5 -8 -12 -16 -12 -4 -3 -4
-18 -19 -18 -18 -18 -19 -18 -18 -18 -16 -14 -12 -12 -12 -12 -12 -12 -9 -9 -9 -13 -15 -18 -20 -12 -5 -3
-17 -18 -18 -18 -18 -18 -18 -17 -16 -16 -14 -12 -11 -12 -12 -13 -6 -7 -14 -14 -15 -15 -16 -17 -19 -9 -4
-15 -16 -16 -17 -18 -17 -17 -15 -16 -14 -14 -13 -12 -11 -12 -12 -12 -13 -14 -15 -15 -15 -13 -16 -16 -6 -9
-14 -15 -16 -17 -17 -14 -14 -14 -15 -14 -14 -11 -10 -11 -10 -11 -12 -13 -14 -15 -15 -15 -16 -14 -7 -6 -10
-6 -13 -16 -16 -14 -11 -11 -11 -11 -13 -12 -11 -8 -10 -10 -11 -12 -13 -14 -14 -15 -15 -15 -15 -13 -14 -7
-3 -9 -13 -15 -13 -10 -11 -10 -10 -10 -8 -9 -9 -10 -11 -12 -13 -13 -13 -14 -15 -17 -18 -18 -16 -17 -18
-4 -5 -13 -12 -14 -12 -10 -9 -8 -8 -8 -7 -9 -9 -10 -12 -13 -13 -13 -14 -16 -18 -18 -18 -20 -21 -21
-3 -5 -13 -13 -13 -10 -9 -7 -6 -7 -7 -7 -9 -9 -11 -12 -12 -13 -14 -16 -17 -16 -16 -17 -18 -19 -20
-3 -7 -14 -14 -11 -6 -6 -6 -7 -7 -8 -8 -9 -8 -9 -11 -13 -15 -14 -13 -13 -14 -16 -18 -18 -18 -19
-4 -7 -9 -11 -9 -7 -6 -7 -7 -7 -7 -7 -8 -8 -9 -10 -10 -11 -12 -13 -13 -14 -16 -17 -18 -17 -18
-7 -10 -10 -11 -10 -6 -6 -7 -8 -8 -8 -8 -9 -9 -9 -10 -10 -11 -11 -12 -13 -14 -15 -16 -17 -17 -17
-7 -9 -9 -10 -8 -6 -7 -7 -8 -9 -9 -9 -10 -9 -10 -10 -10 -11 -11 -12 -12 -13 -14 -13 -14 -14 -16
-8 -9 -7 -6 -6 -7 -7 -8 -8 -9 -9 -9 -9 -10 -10 -10 -11 -11 -11 -11 -12 -12 -12 -12 -13 -13 -14
-7 -7 -7 -7 -7 -7 -8 -8 -8 -9 -9 -10 -10 -11 -11 -10 -11 -11 -11 -11 -11 -12 -11 -11 -12 -12 -12
-7 -7 -8 -9 -7 -8 -8 -9 -9 -10 -11 -12 -11 -11 -11 -11 -11 -11 -11 -11 -12 -11 -11 -11 -12 -12 -12
-7 -10 -10 -7 -8 -9 -9 -9 -9 -10 -12 -11 -11 -11 -11 -11 -11 -11 -11 -11 -11 -11 -11 -11 -11 -12 -12

GFSFLT2_850_dewp_147.txt.gz
Dewpoint
-14 -15 -18 -18 -17 -18 -19 -20 -20 -19 -20 -20 -19 -18 -17 -16 -15 -13 -4 -3 -4 -4 -3 -4 -3 -2 -2
-12 -12 -15 -17 -17 -18 -19 -19 -19 -19 -18 -19 -18 -17 -15 -14 -14 -13 -5 -5 -5 -6 -6 -6 -5 -3 -3
-13 -11 -12 -15 -16 -17 -19 -19 -19 -18 -17 -18 -17 -17 -16 -14 -13 -10 -6 -7 -13 -14 -14 -15 -6 -6 -4
-12 -12 -11 -9 -12 -15 -18 -19 -18 -17 -17 -16 -16 -16 -14 -13 -12 -12 -12 -12 -13 -14 -15 -11 -7 -9 -4
-10 -12 -11 -6 -3 -12 -16 -15 -16 -16 -16 -14 -13 -13 -12 -11 -10 -11 -12 -13 -14 -14 -14 -6 -6 -5 -4
-8 -10 -10 -7 -2 -5 -13 -11 -11 -15 -14 -13 -11 -12 -13 -10 -10 -11 -12 -13 -14 -14 -7 -7 -6 -6 -6
-8 -8 -10 -5 -3 -6 -11 -12 -11 -11 -11 -12 -10 -10 -12 -11 -10 -11 -12 -13 -13 -13 -12 -12 -13 -7 -6
-6 -7 -6 -3 -3 -4 -9 -9 -10 -12 -11 -8 -7 -8 -11 -12 -11 -12 -12 -13 -13 -13 -14 -13 -7 -8 -15
-8 -5 -6 -3 -3 -5 -8 -9 -10 -10 -9 -6 -7 -9 -10 -11 -11 -11 -12 -12 -13 -14 -13 -11 -10 -11 -18
-5 -5 -4 -4 -4 -8 -12 -10 -9 -7 -6 -7 -7 -8 -9 -10 -11 -13 -13 -13 -12 -14 -15 -14 -15 -16 -18
-3 -3 -4 -4 -5 -9 -7 -8 -6 -6 -6 -7 -7 -8 -8 -8 -9 -10 -11 -11 -11 -12 -13 -13 -14 -16 -17
-3 -4 -4 -4 -5 -6 -7 -8 -7 -7 -7 -7 -7 -8 -8 -8 -9 -9 -11 -11 -11 -12 -13 -13 -14 -15 -16
-4 -4 -4 -5 -8 -8 -7 -6 -6 -6 -6 -7 -8 -8 -8 -9 -9 -10 -10 -10 -11 -12 -12 -13 -13 -13 -14
-4 -4 -5 -7 -8 -7 -7 -7 -6 -7 -8 -8 -8 -9 -9 -9 -10 -10 -11 -10 -11 -12 -12 -12 -12 -12 -13
-5 -5 -6 -6 -7 -7 -7 -7 -7 -8 -8 -8 -9 -9 -9 -9 -10 -11 -11 -11 -11 -11 -11 -11 -12 -12 -12
-5 -5 -6 -7 -7 -7 -7 -8 -8 -8 -8 -9 -9 -9 -10 -11 -11 -11 -11 -11 -11 -11 -11 -11 -11 -12 -12
-5 -6 -6 -7 -7 -7 -8 -8 -8 -8 -9 -9 -10 -10 -11 -11 -11 -11 -11 -11 -11 -11 -11 -12 -12 -12 -11

GFSFLT2_850_dewp_150.txt.gz
Dewpoint
-8 -8 -9 -11 -13 -15 -16 -18 -19 -20 -20 -20 -19 -18 -18 -18 -18 -18 -16 -11 -3 -3 -3 -3 -3 -3 -2
-8 -9 -7 -8 -11 -13 -15 -16 -17 -19 -20 -20 -19 -18 -17 -18 -17 -17 -15 -9 -4 -4 -4 -5 -3 -4 -3
-9 -9 -8 -8 -8 -9 -11 -11 -12 -16 -19 -20 -19 -17 -17 -16 -16 -17 -15 -8 -5 -6 -13 -12 -5 -5 -4
-8 -8 -8 -8 -9 -8 -9 -7 -5 -9 -16 -19 -18 -17 -16 -14 -15 -16 -14 -13 -12 -12 -12 -14 -13 -6 -4
-7 -8 -8 -8 -8 -8 -9 -6 -4 -5 -12 -16 -17 -16 -14 -12 -13 -14 -13 -12 -11 -12 -13 -14 -10 -5 -5
-4 -7 -7 -7 -8 -8 -9 -7 -4 -5 -7 -13 -12 -14 -13 -11 -11 -13 -12 -11 -11 -12 -12 -12 -6 -5 -5
-4 -4 -5 -5 -6 -8 -8 -8 -4 -5 -7 -7 -8 -7 -9 -9 -9 -13 -12 -11 -11 -12 -11 -7 -6 -6 -5
-1 -2 -3 -5 -7 -8 -7 -4 -4 -5 -5 -6 -7 -7 -6 -6 -8 -11 -12 -12 -12 -12 -11 -7 -6 -7 -6
0 -1 -4 -6 -7 -6 -4 -4 -5 -5 -5 -6 -7 -6 -6 -6 -8 -10 -12 -12 -11 -12 -11 -9 -7 -6 -6
-1 -2 -4 -5 -5 -6 -5 -5 -5 -5 -6 -7 -6 -6 -6 -7 -9 -11 -12 -11 -12 -12 -9 -8 -8 -11 -8
-2 -2 -3 -4 -5 -5 -4 -5 -5 -6 -6 -6 -6 -6 -7 -7 -7 -8 -9 -9 -9 -10 -11 -11 -12 -12 -11
-3 -3 -3 -4 -4 -3 -4 -5 -5 -6 -6 -6 -6 -6 -7 -7 -8 -8 -8 -8 -9 -10 -10 -10 -11 -12 -13
-4 -4 -3 -4 -4 -4 -4 -5 -6 -6 -6 -6 -6 -6 -7 -7 -8 -8 -8 -9 -9 -9 -9 -9 -11 -12 -12
-3 -4 -4 -4 -4 -5 -5 -6 -7 -7 -6 -6 -6 -7 -7 -8 -8 -8 -9 -9 -9 -9 -10 -10 -11 -11 -12
-4 -4 -4 -4 -5 -5 -6 -6 -7 -6 -7 -7 -7 -7 -8 -8 -9 -9 -9 -9 -10 -10 -10 -10 -11 -11 -11
-5 -5 -4 -5 -5 -6 -6 -7 -6 -7 -7 -7 -8 -8 -8 -9 -9 -9 -10 -12 -11 -10 -10 -10 -10 -11 -11
-5 -5 -5 -5 -5 -6 -7 -7 -7 -7 -7 -8 -8 -8 -9 -9 -9 -10 -12 -11 -11 -10 -10 -10 -10 -12 -12

GFSFLT2_850_dewp_153.txt.gz
Dewpoint
-8 -8 -8 -7 -6 -6 -6 -7 -8 -8 -10 -11 -17 -19 -20 -19 -17 -16 -16 -16 -16 -5 -3 -2 -3 -2 -2
-4 -6 -7 -8 -8 -7 -7 -7 -6 -6 -7 -6 -8 -16 -19 -20 -18 -16 -16 -15 -17 -8 -3 -6 -4 -4 -2
-2 -3 -4 -6 -7 -8 -8 -8 -7 -7 -7 -5 -3 -7 -15 -19 -18 -16 -14 -14 -16 -8 -5 -8 -9 -6 -4
-3 -3 -3 -3 -4 -6 -7 -8 -8 -7 -7 -6 -3 -3 -9 -17 -18 -17 -14 -13 -14 -13 -12 -12 -13 -13 -13
-3 -3 -4 -4 -3 -3 -5 -6 -7 -8 -8 -7 -5 -3 -5 -15 -18 -16 -13 -12 -13 -13 -12 -11 -12 -13 -11
-2 -3 -3 -3 -3 -3 -4 -6 -6 -6 -7 -6 -4 -5 -8 -13 -15 -15 -13 -10 -12 -13 -12 -11 -12 -11 -9
-2 -2 -3 -3 -3 -4 -5 -5 -6 -6 -5 -6 -5 -6 -7 -9 -11 -13 -12 -9 -11 -12 -11 -9 -7 -6 -5
-3 -3 -2 -1 -3 -4 -4 -5 -5 -6 -6 -4 -4 -5 -6 -7 -8 -10 -10 -9 -11 -12 -11 -6 -6 -6 -5
-3 -3 -3 -2 -2 -4 -4 -4 -4 -4 -5 -4 -4 -5 -6 -7 -6 -7 -6 -8 -9 -11 -10 -6 -6 -6 -6
-4 -3 -3 -3 -3 -3 -4 -5 -4 -4 -5 -4 -5 -5 -6 -7 -8 -7 -8 -11 -12 -11 -11 -11 -7 -6 -6
-4 -4 -4 -3 -3 -3 -4 -4 -4 -4 -4 -5 -5 -6 -6 -7 -7 -8 -8 -9 -10 -11 -10 -10 -7 -7 -8
-5 -4 -4 -3 -3 -3 -4 -4 -4 -4 -4 -5 -5 -6 -7 -7 -7 -8 -8 -8 -9 -10 -9 -9 -9 -9 -9
-5 -5 -4 -4 -4 -4 -4 -4 -4 -4 -5 -5 -5 -6 -7 -7 -7 -7 -7 -8 -8 -9 -9 -9 -10 -9 -9
-6 -6 -5 -5 -4 -4 -4 -5 -5 -5 -5 -6 -6 -6 -6 -6 -6 -7 -7 -8 -8 -9 -10 -11 -10 -9 -10
-6 -6 -6 -5 -5 -4 -5 -5 -5 -5 -6 -6 -6 -7 -7 -6 -7 -7 -8 -8 -9 -9 -10 -12 -10 -10 -10
-6 -6 -6 -6 -5 -5 -5 -5 -6 -6 -6 -7 -7 -7 -7 -7 -7 -7 -8 -8 -9 -9 -10 -10 -10 -9 -10
-7 -6 -6 -6 -6 -5 -6 -5 -6 -6 -7 -6 -7 -7 -7 -8 -9 -9 -9 -10 -11 -11 -11 -10 -10 -10 -11

GFSFLT2_850_dewp_156.txt.gz
Dewpoint
-2 -1 -1 -3 -4 -4 -5 -6 -7 -7 -6 -6 -6 -7 -9 -11 -14 -17 -19 -17 -15 -14 -13 -13 -8 -3 -3
-3 -2 -2 -1 -1 -3 -2 -3 -3 -4 -7 -7 -6 -6 -6 -5 -7 -12 -17 -19 -16 -15 -13 -13 -6 -8 -3
-2 -2 -2 -2 -2 -2 -2 -2 -2 -2 -3 -6 -7 -7 -7 -6 -3 -5 -13 -18 -17 -15 -13 -13 -10 -11 -10
-2 -2 -2 -2 -2 -2 -2 -2 -2 -1 -2 -3 -6 -7 -7 -7 -4 -3 -9 -17 -18 -16 -13 -12 -13 -14 -14
-2 -2 -2 -2 -3 -3 -3 -3 -2 -2 -2 -3 -3 -6 -7 -7 -6 -4 -6 -15 -18 -15 -12 -12 -13 -14 -14
-3 -3 -3 -2 -3 -3 -3 -3 -3 -3 -3 -3 -3 -5 -5 -6 -4 -4 -8 -15 -16 -13 -11 -11 -11 -13 -12
-3 -3 -3 -3 -3 -3 -3 -3 -3 -3 -4 -4 -4 -5 -4 -5 -5 -5 -8 -11 -13 -12 -6 -7 -8 -7 -7
-7 -5 -5 -4 -3 -3 -3 -3 -3 -3 -4 -4 -4 -4 -4 -5 -5 -5 -6 -8 -9 -9 -6 -6 -6 -5 -5
-4 -4 -4 -4 -4 -4 -3 -3 -3 -3 -4 -4 -4 -4 -4 -5 -4 -5 -5 -7 -6 -6 -5 -5 -5 -5 -5
-5 -5 -4 -4 -4 -4 -4 -4 -3 -4 -4 -4 -4 -4 -4 -4 -5 -5 -6 -6 -6 -6 -6 -6 -5 -6 -6
-6 -7 -7 -6 -5 -5 -5 -4 -4 -4 -4 -4 -4 -4 -5 -4 -6 -6 -6 -7 -8 -10 -11 -12 -9 -7 -7
-8 -8 -8 -7 -7 -6 -6 -5 -5 -5 -5 -4 -4 -4 -5 -5 -6 -6 -7 -7 -8 -8 -9 -9 -9 -9 -7
-7 -7 -7 -6 -6 -6 -6 -6 -5 -5 -4 -5 -5 -5 -5 -5 -5 -6 -7 -7 -8 -8 -8 -9 -10 -10 -10
-7 -8 -7 -6 -6 -7 -6 -6 -5 -5 -5 -5 -5 -5 -5 -5 -6 -7 -7 -7 -8 -8 -8 -9 -9 -10 -10
-7 -7 -8 -8 -7 -7 -6 -6 -6 -5 -5 -5 -5 -5 -6 -6 -6 -6 -7 -6 -7 -7 -8 -9 -9 -10 -11
-7 -7 -7 -8 -7 -7 -7 -6 -6 -6 -5 -6 -6 -6 -6 -6 -6 -6 -7 -7 -7 -8 -8 -8 -9 -10 -11
-7 -7 -8 -7 -7 -7 -7 -6 -6 -6 -6 -6 -6 -7 -7 -7 -8 -8 -7 -7 -8 -8 -9 -9 -10 -11 -12

GFSFLT2_850_dewp_159.txt.gz
Dewpoint
-3 -5 -4 -4 -4 -3 -2 -2 -3 -2 -3 -3 -5 -6 -7 -6 -6 -8 -8 -10 -15 -18 -17 -14 -12 -2 -1
-2 -2 -2 -3 -4 -3 -3 -2 -2 -2 -2 -2 -3 -3 -5 -7 -7 -6 -7 -7 -9 -15 -17 -15 -14 -10 -2
-3 -3 -3 -3 -4 -5 -5 -5 -4 -3 -3 -2 -2 -3 -3 -4 -6 -7 -7 -7 -5 -8 -15 -17 -16 -13 -2
-2 -4 -4 -5 -3 -3 -4 -6 -7 -5 -4 -3 -3 -2 -2 -3 -4 -6 -7 -7 -4 -5 -11 -16 -17 -14 -7
-5 -4 -3 -3 -3 -3 -3 -3 -3 -3 -4 -5 -5 -4 -3 -2 -3 -4 -7 -7 -5 -4 -7 -12 -15 -13 -9
-5 -5 -5 -5 -5 -4 -4 -5 -4 -4 -4 -4 -4 -4 -4 -4 -3 -3 -5 -7 -7 -5 -6 -9 -8 -6 -7
-4 -5 -5 -5 -4 -4 -4 -4 -4 -4 -4 -4 -4 -4 -5 -5 -5 -4 -4 -6 -5 -5 -10 -10 -8 -4 -6
-5 -5 -4 -4 -4 -4 -5 -5 -4 -4 -4 -4 -4 -5 -5 -4 -5 -5 -3 -4 -4 -5 -9 -9 -5 -4 -5
-5 -5 -6 -5 -5 -5 -5 -5 -5 -5 -6 -4 -5 -5 -5 -5 -5 -5 -4 -3 -5 -6 -5 -5 -4 -4 -4
-6 -6 -6 -6 -9 -7 -7 -6 -6 -5 -7 -4 -4 -5 -4 -5 -5 -5 -5 -4 -5 -5 -4 -4 -5 -5 -5
-7 -7 -6 -8 -8 -8 -7 -6 -6 -6 -7 -5 -4 -4 -4 -4 -5 -5 -4 -4 -5 -4 -4 -5 -5 -5 -6
-8 -8 -8 -8 -8 -7 -6 -6 -6 -6 -6 -6 -5 -5 -5 -5 -5 -5 -5 -5 -5 -5 -5 -6 -9 -8 -6
-9 -9 -8 -8 -8 -8 -8 -7 -6 -6 -6 -6 -6 -5 -5 -5 -5 -5 -5 -6 -6 -6 -6 -7 -7 -8 -8
-8 -8 -8 -8 -8 -8 -8 -7 -7 -7 -6 -6 -6 -6 -5 -5 -5 -5 -5 -6 -6 -6 -7 -7 -7 -8 -9
-8 -8 -8 -8 -8 -7 -8 -7 -7 -6 -7 -7 -6 -6 -6 -6 -5 -5 -5 -6 -7 -7 -7 -7 -8 -8 -9
-8 -8 -7 -8 -7 -8 -8 -7 -7 -7 -7 -6 -6 -6 -6 -6 -6 -6 -6 -6 -7 -7 -7 -7 -8 -8 -8
-8 -8 -8 -9 -7 -8 -8 -7 -7 -7 -7 -6 -6 -6 -6 -7 -7 -7 -7 -7 -7 -7 -7 -7 -8 -8 -8

GFSFLT2_850_dewp_162.txt.gz
Dewpoint
-6 -11 -11 -11 -11 -11 -10 -9 -6 -4 -3 -2 -2 -2 -2 -3 -4 -5 -6 -7 -7 -10 -11 -5 -1 -0 -0
-5 -5 -6 -9 -10 -13 -15 -16 -14 -13 -12 -8 -4 -3 -2 -3 -3 -4 -4 -5 -7 -7 -9 -8 -2 -1 -0
-9 -7 -5 -6 -6 -8 -10 -11 -12 -11 -8 -8 -9 -8 -4 -3 -3 -3 -3 -3 -4 -7 -7 -8 -8 -2 -1
-12 -10 -8 -9 -6 -5 -6 -9 -10 -7 -10 -11 -9 -8 -8 -7 -6 -3 -2 -2 -3 -4 -6 -7 -6 -6 -5
-11 -10 -8 -5 -5 -5 -4 -5 -4 -5 -5 -7 -7 -9 -11 -7 -6 -5 -4 -3 -3 -3 -3 -6 -4 -4 -5
-8 -5 -4 -4 -4 -5 -4 -5 -5 -4 -5 -5 -5 -4 -5 -9 -11 -9 -7 -5 -3 -3 -2 -4 -5 -2 -2
-4 -4 -5 -5 -5 -5 -5 -6 -6 -6 -5 -5 -5 -5 -5 -4 -8 -9 -8 -7 -4 -3 -3 -4 -5 -4 -2
-8 -8 -6 -5 -6 -6 -6 -6 -6 -7 -7 -5 -7 -6 -6 -6 -5 -7 -9 -8 -5 -4 -3 -3 -5 -3 -3
-7 -7 -6 -6 -6 -6 -7 -7 -6 -7 -8 -5 -9 -8 -5 -5 -5 -7 -9 -7 -7 -4 -4 -3 -4 -3 -4
-7 -8 -8 -8 -8 -8 -8 -7 -7 -7 -8 -6 -6 -7 -6 -7 -7 -5 -6 -7 -6 -4 -4 -4 -4 -4 -4
-7 -7 -10 -10 -9 -10 -8 -7 -8 -8 -8 -6 -6 -6 -6 -5 -5 -6 -6 -7 -5 -5 -4 -4 -4 -4 -4
-10 -10 -10 -10 -9 -9 -8 -8 -8 -8 -8 -7 -7 -7 -6 -6 -6 -5 -6 -6 -5 -5 -4 -5 -4 -4 -4
-9 -10 -9 -9 -9 -9 -9 -9 -9 -8 -8 -7 -7 -7 -6 -6 -6 -5 -5 -5 -5 -5 -5 -5 -4 -4 -5
-9 -9 -9 -9 -9 -9 -8 -8 -7 -8 -8 -7 -6 -6 -6 -6 -6 -6 -5 -5 -5 -5 -6 -6 -5 -6 -7
-9 -9 -9 -8 -8 -9 -8 -8 -7 -8 -8 -7 -7 -6 -6 -6 -7 -6 -6 -6 -5 -6 -6 -6 -7 -7 -7
-9 -8 -8 -8 -8 -7 -8 -8 -8 -8 -7 -7 -7 -6 -7 -7 -7 -7 -6 -6 -6 -6 -7 -7 -8 -8 -7
-9 -9 -9 -8 -8 -9 -8 -8 -8 -8 -7 -7 -6 -6 -7 -7 -7 -7 -7 -7 -6 -6 -7 -7 -8 -8 -7

GFSFLT2_850_dewp_165.txt.gz
Dewpoint
-14 -17 -23 -24 -24 -20 -17 -17 -17 -18 -18 -16 -12 -6 -3 -3 -2 -1 -1 -1 -0 -0 -1 -1 -0 -0 1
-14 -15 -14 -15 -18 -19 -21 -20 -20 -18 -16 -16 -16 -15 -14 -11 -6 -3 -2 -1 -1 -1 -1 -1 -1 -0 1
-19 -16 -15 -15 -15 -16 -17 -18 -20 -19 -15 -14 -15 -14 -13 -10 -8 -6 -5 -3 -1 -1 -1 -2 -2 -1 -1
-22 -19 -15 -15 -12 -8 -7 -7 -11 -13 -14 -9 -9 -12 -13 -12 -9 -7 -6 -5 -4 -2 -1 -1 -1 -3 -4
-16 -14 -9 -5 -5 -5 -5 -5 -5 -5 -5 -6 -8 -9 -10 -11 -10 -9 -9 -9 -9 -6 -4 -2 -1 -1 -2
-5 -5 -6 -7 -6 -6 -6 -7 -7 -7 -6 -7 -7 -7 -7 -8 -9 -10 -8 -8 -8 -9 -8 -5 -2 -1 -1
-6 -6 -7 -6 -7 -7 -7 -7 -7 -7 -6 -7 -9 -6 -7 -8 -10 -10 -8 -8 -7 -5 -7 -7 -5 -2 -2
-7 -7 -6 -6 -6 -6 -6 -6 -6 -8 -7 -7 -9 -8 -8 -8 -8 -8 -7 -5 -7 -5 -5 -6 -5 -4 -3
-7 -7 -7 -6 -6 -6 -6 -6 -8 -10 -10 -7 -8 -6 -7 -9 -10 -10 -9 -6 -8 -6 -5 -5 -6 -4 -4
-6 -7 -7 -8 -10 -10 -9 -9 -9 -9 -7 -7 -9 -8 -7 -8 -7 -8 -9 -9 -6 -7 -8 -7 -5 -4 -3
-8 -10 -10 -10 -11 -10 -9 -8 -8 -8 -9 -7 -8 -8 -7 -8 -10 -9 -8 -8 -8 -8 -8 -6 -6 -4 -4
-10 -10 -10 -10 -10 -9 -9 -9 -9 -8 -9 -9 -8 -8 -7 -8 -7 -8 -7 -6 -6 -7 -6 -5 -5 -5 -4
-9 -9 -9 -9 -9 -10 -9 -9 -8 -8 -9 -8 -8 -8 -7 -7 -7 -7 -7 -7 -7 -6 -6 -6 -5 -6 -4
-9 -9 -10 -10 -8 -8 -8 -8 -8 -8 -9 -8 -7 -7 -7 -7 -7 -7 -7 -7 -7 -6 -6 -5 -6 -5 -5
-9 -9 -9 -9 -9 -9 -8 -9 -8 -8 -9 -9 -8 -7 -7 -7 -7 -7 -7 -7 -6 -6 -6 -6 -6 -6 -6
-9 -9 -9 -9 -9 -9 -8 -9 -8 -9 -9 -8 -8 -7 -7 -8 -7 -7 -7 -7 -6 -6 -6 -6 -7 -7 -7
-9 -9 -9 -9 -8 -8 -10 -10 -9 -9 -9 -8 -8 -7 -7 -7 -7 -7 -7 -7 -7 -7 -7 -7 -7 -7 -7

GFSFLT2_850_dewp_168.txt.gz
Dewpoint
-24 -24 -26 -29 -32 -32 -30 -26 -24 -22 -20 -18 -19 -18 -17 -16 -13 -8 -4 -1 0 0 1 1 1 1 1
-24 -23 -23 -23 -22 -23 -26 -27 -25 -22 -18 -19 -19 -17 -15 -15 -15 -12 -8 -3 -1 -1 -1 -0 0 0 0
-18 -17 -16 -16 -15 -13 -12 -11 -12 -15 -17 -19 -20 -17 -14 -8 -5 -4 -4 -4 -3 -2 -2 -2 -1 -1 -0
-15 -13 -8 -8 -6 -6 -7 -7 -6 -7 -8 -15 -16 -17 -14 -10 -8 -9 -9 -8 -7 -6 -4 -3 -2 -1 -1
-7 -6 -6 -6 -6 -7 -7 -7 -8 -8 -9 -10 -9 -9 -12 -13 -12 -11 -11 -11 -8 -6 -5 -4 -4 -4 -2
-6 -6 -7 -8 -7 -7 -7 -7 -6 -7 -7 -8 -9 -7 -10 -12 -14 -12 -7 -5 -5 -4 -4 -4 -4 -5 -5
-7 -8 -7 -7 -7 -7 -6 -6 -6 -6 -7 -6 -6 -9 -12 -13 -12 -11 -8 -6 -5 -5 -4 -4 -4 -4 -5
-8 -8 -8 -7 -6 -6 -6 -7 -10 -9 -7 -8 -10 -11 -9 -10 -10 -11 -11 -10 -7 -6 -5 -4 -4 -4 -5
-7 -8 -7 -8 -8 -9 -10 -10 -9 -9 -8 -9 -10 -9 -9 -10 -11 -10 -9 -7 -6 -7 -6 -6 -5 -5 -5
-7 -8 -10 -11 -10 -10 -10 -9 -8 -8 -8 -8 -9 -8 -8 -9 -9 -10 -10 -10 -10 -9 -7 -6 -6 -5 -7
-11 -11 -11 -11 -10 -10 -10 -9 -9 -8 -9 -8 -8 -8 -8 -8 -9 -10 -10 -10 -9 -9 -9 -9 -8 -6 -5
-11 -9 -9 -9 -10 -10 -10 -10 -8 -8 -9 -8 -8 -8 -8 -8 -8 -9 -9 -8 -8 -8 -8 -7 -7 -7 -5
-9 -10 -10 -10 -10 -10 -9 -9 -9 -10 -10 -8 -8 -8 -8 -8 -7 -8 -8 -7 -7 -8 -7 -6 -6 -6 -6
-10 -10 -10 -10 -9 -9 -9 -9 -9 -11 -11 -9 -8 -8 -8 -8 -7 -7 -7 -7 -7 -7 -6 -7 -6 -6 -6
-10 -10 -10 -9 -9 -10 -10 -9 -9 -10 -11 -10 -9 -8 -8 -7 -7 -7 -7 -7 -7 -7 -7 -6 -7 -7 -6
-10 -10 -10 -10 -10 -10 -10 -10 -10 -10 -10 -10 -9 -9 -9 -9 -8 -8 -8 -7 -7 -7 -7 -6 -7 -7 -7
-11 -11 -10 -11 -10 -10 -10 -10 -10 -10 -10 -10 -9 -8 -8 -8 -9 -8 -7 -8 -7 -7 -7 -7 -7 -7 -7

GFSFLT2_850_dewp_171.txt.gz
Dewpoint
-18 -18 -18 -19 -22 -24 -23 -22 -22 -23 -22 -23 -23 -22 -20 -17 -15 -7 -7 -3 -3 -1 -0 0 1 1 1
-16 -14 -13 -14 -15 -12 -13 -15 -14 -16 -18 -19 -16 -17 -17 -13 -9 -4 -4 -4 -4 -3 -3 -1 -1 -0 0
-14 -9 -7 -6 -6 -6 -6 -6 -7 -9 -12 -14 -15 -13 -8 -6 -6 -6 -4 -4 -4 -3 -3 -3 -2 -2 -1
-7 -6 -6 -6 -7 -7 -7 -7 -7 -7 -9 -9 -9 -10 -10 -11 -9 -8 -9 -11 -9 -5 -5 -4 -4 -4 -3
-6 -8 -7 -7 -7 -7 -8 -8 -8 -9 -6 -7 -6 -7 -10 -8 -10 -12 -10 -7 -5 -5 -4 -4 -4 -4 -4
-7 -7 -7 -7 -7 -7 -7 -7 -6 -6 -7 -9 -8 -8 -9 -8 -12 -12 -7 -7 -6 -5 -5 -5 -5 -6 -5
-8 -8 -7 -7 -8 -8 -6 -7 -8 -9 -8 -9 -8 -8 -9 -11 -11 -12 -12 -8 -6 -6 -6 -6 -6 -5 -6
-8 -8 -7 -7 -7 -7 -8 -9 -9 -8 -8 -8 -8 -9 -9 -8 -11 -11 -12 -11 -7 -6 -6 -6 -5 -5 -5
-10 -10 -11 -11 -11 -10 -10 -9 -9 -9 -9 -8 -8 -8 -9 -10 -10 -9 -10 -10 -10 -10 -8 -8 -7 -6 -6
-11 -13 -13 -12 -11 -10 -9 -9 -9 -9 -8 -9 -9 -8 -8 -8 -8 -9 -11 -11 -10 -9 -9 -7 -6 -6 -6
-12 -12 -10 -10 -10 -11 -10 -9 -9 -9 -10 -9 -9 -8 -8 -9 -8 -9 -9 -9 -9 -9 -9 -8 -7 -6 -6
-11 -10 -10 -10 -10 -10 -10 -9 -9 -9 -9 -9 -9 -8 -8 -9 -8 -9 -9 -9 -8 -8 -7 -7 -7 -6 -6
-10 -10 -10 -11 -10 -10 -10 -11 -10 -10 -9 -10 -10 -9 -9 -9 -8 -8 -7 -8 -8 -7 -7 -7 -7 -7 -7
-10 -10 -10 -10 -10 -10 -11 -11 -10 -10 -10 -11 -11 -9 -8 -8 -8 -8 -8 -7 -7 -7 -7 -7 -7 -6 -7
-11 -11 -11 -10 -11 -11 -11 -10 -10 -10 -10 -11 -10 -10 -9 -9 -9 -8 -8 -8 -8 -7 -7 -7 -6 -7 -7
-11 -11 -11 -11 -11 -11 -11 -10 -10 -10 -10 -10 -10 -10 -10 -10 -10 -9 -9 -8 -8 -8 -7 -7 -7 -7 -7
-11 -11 -11 -11 -11 -11 -11 -11 -11 -11 -11 -10 -9 -9 -9 -9 -10 -9 -8 -8 -8 -9 -8 -8 -8 -8 -7

GFSFLT2_850_dewp_174.txt.gz
Dewpoint
-9 -8 -6 -6 -6 -8 -10 -8 -6 -6 -10 -10 -8 -6 -5 -5 -5 -4 -4 -4 -3 -3 -2 -2 -1 -1 1
-6 -6 -6 -5 -6 -6 -6 -6 -7 -7 -6 -9 -7 -6 -6 -5 -5 -5 -5 -5 -5 -3 -3 -3 -3 -2 -2
-6 -5 -6 -6 -6 -6 -7 -7 -7 -8 -7 -7 -7 -6 -6 -6 -6 -6 -6 -6 -6 -6 -6 -5 -4 -3 -3
-6 -6 -7 -7 -7 -8 -7 -7 -7 -7 -7 -6 -6 -6 -7 -6 -6 -6 -6 -6 -7 -7 -6 -6 -6 -4 -5
-7 -7 -7 -8 -7 -7 -6 -7 -7 -7 -6 -7 -8 -8 -8 -7 -7 -6 -6 -7 -7 -7 -7 -5 -5 -5 -4
-7 -7 -7 -7 -7 -6 -6 -6 -7 -7 -7 -8 -8 -8 -8 -8 -8 -7 -8 -7 -7 -6 -6 -6 -5 -5 -5
-7 -8 -8 -8 -7 -7 -7 -8 -9 -8 -8 -9 -8 -8 -8 -8 -7 -7 -7 -9 -7 -6 -6 -6 -6 -6 -6
-9 -8 -7 -8 -8 -8 -8 -8 -8 -8 -8 -9 -8 -8 -8 -8 -8 -8 -9 -9 -7 -7 -7 -7 -7 -5 -5
-8 -7 -8 -9 -9 -9 -8 -9 -9 -9 -9 -9 -9 -9 -8 -8 -8 -8 -8 -7 -7 -7 -7 -7 -6 -6 -6
-8 -8 -9 -9 -9 -9 -9 -9 -9 -10 -9 -9 -8 -8 -8 -8 -8 -9 -8 -8 -7 -7 -7 -7 -6 -6 -7
-9 -9 -9 -9 -9 -9 -9 -9 -9 -10 -9 -9 -9 -9 -9 -9 -8 -9 -8 -8 -7 -7 -7 -7 -7 -6 -6
-9 -9 -9 -10 -10 -10 -10 -9 -10 -10 -9 -9 -9 -9 -9 -9 -9 -9 -9 -8 -7 -7 -7 -7 -7 -7 -7
-10 -10 -10 -10 -10 -10 -10 -10 -11 -11 -11 -10 -9 -9 -10 -9 -9 -9 -8 -8 -8 -7 -7 -7 -7 -7 -7
-10 -10 -10 -10 -10 -10 -10 -10 -10 -10 -11 -10 -9 -9 -9 -9 -9 -10 -9 -7 -7 -7 -7 -9 -7 -7 -7
-11 -11 -11 -11 -10 -10 -10 -10 -10 -10 -10 -11 -10 -9 -9 -10 -9 -9 -8 -8 -8 -7 -8 -8 -8 -7 -7
-11 -11 -11 -11 -11 -10 -11 -10 -11 -10 -10 -10 -9 -10 -10 -10 -8 -9 -9 -9 -8 -8 -8 -8 -8 -8 -7
-11 -11 -11 -11 -11 -11 -10 -11 -11 -10 -10 -10 -10 -9 -10 -9 -10 -9 -9 -9 -8 -8 -8 -8 -8 -10 -10